2021-046D (48806 NORAD) Tracking and Keplerian Element Data

This shows tracking and keplerian element data for the satellite.

Feedback or suggestion? Click here.




ElementValue
Catalog48806
Name2021-046D
Epoch Orbit54
Epoch Day152.92105533
Epoch Year2021
RAAN15.7581
Inclination41.3237
Eccentricity0.0155844
Argument of Perigee176.1447
Mean Anonmoly185.3163
Mean Motion15.95832165
Decay Rate0.04713186
L11 48806U 21046D 21152.92105533 .04713186 70024-5 28721-2 0 9998
L22 48806 41.3237 15.7581 0155844 176.1447 185.3163 15.95832165 543

Live tracking and technical data element details for 2021-046D (NORAD 48806). 2021-046D can be tracked NOW for your location showing map with azimuth and elevation plus other details from your city location.

Track the satellite on the map from your city or location and see movement details for azimuth, elevation, latitude, longitude, range, height, and movement on the map or in text.







IsCatalogInMostPopularTable: catalog: 48806, numindb: 8
Update: records affected: 1



GetName: 48806 2021-046D

Hit Count: updated at: Mon, 21 Jun 2021 03:58:02 GMT